Starlink 5580

operational
NORAD ID: 55748 Int'l Des: 2023-028 Owner: SPXS Country: US Constellation: starlink
LEOCIRCULAR

About Starlink 5580

Description loading...

Live Position

Loading 3D Globe...

Upcoming Passes

Altitude History

Altitude vs Time

uPlot chart will show altitude changes over time

Two-Line Element Set

1 55748U 23028H 25305.47374008 -.00002695 00000-0 -21819-3 0 9990
2 55748 69.9996 207.7721 0002811 274.8609 85.2229 14.98331463146835
Epoch: Nov 1, 2025 • Age: 25 hours

Current Status

Altitude 582.9 km
Velocity 7.57 km/s
Sub-Earth Point -33.52°S, 43.52°W
Launch Date Mar 3, 2023
Age 2.6 years
Type internet

Technical Details

Classification Payload
Mass 305.00 kg
Dry Mass 290.00 kg
Total Mass 305.00 kg
Length 0.20 m
Diameter 2.80 m
Span 9.00 m
Shape Box + pan
Manufacturer SPXS
Bus Type Starlink
Phase Status In Orbit
Owner/State SPXS/US

Large Constellations

Loading constellations...